Simultaneous Nadir Overpasses (SNOs) Predictions

Prediction of SNOs between GOES-14 and NOAA-20 Satellite Orbit:

Table of predicted SNOs for the next 14.0 days since TLE Epoch: 2/3/2024
Index Date Time (GOES-14) GOES-14 Lat,Lon NOAA-20 Lat,Lon Distance(km) Time Diff (sec)
1 02/04/2024 20:42:50 0.02,-108.49 -0.11,-109.03 61.74 80
2 02/05/2024 20:21:25 0.02,-108.49 0.88,-104.50 453.81 80
3 02/07/2024 08:45:54 -0.01,-108.46 0.30,-109.77 149.89 80
4 02/08/2024 08:24:29 -0.01,-108.45 -0.70,-105.24 365.32 80
5 02/09/2024 20:46:26 0.01,-108.45 -0.47,-110.54 238.86 80
6 02/10/2024 20:27:42 0.01,-108.44 0.53,-106.01 276.56 80
7 02/12/2024 08:52:10 -0.01,-108.42 0.64,-111.28 326.77 80
8 02/13/2024 08:30:46 -0.02,-108.41 -0.36,-106.75 188.65 80
9 02/14/2024 20:55:23 0.01,-108.41 -0.79,-112.06 415.38 80
10 02/15/2024 20:33:59 0.01,-108.41 0.21,-107.53 100.17 80
